Temp
10 10 11 11 11 11 11 11 11 11 12 12 12 12 12 12 12 12 12 12 12 13 13 13 13 13 12 12 12 13 12 13 13 13 12 13 13 11 12 13 11 11 11 12 11
10 10 11 11 11 11 11 11 11 11 12 12 12 12 12 11 11 11 11 12 12 12 11 11 12 12 11 11 12 13 12 12 12 13 12 13 13 13 12 12 13 12 11 11 11
9 10 10 11 11 11 11 11 11 11 11 12 12 12 12 11 11 11 11 12 12 11 10 11 11 11 11 11 11 11 12 12 12 12 12 13 13 12 12 12 11 12 11 9 10
9 10 10 10 11 11 11 11 11 11 11 12 12 12 11 11 10 11 12 11 11 11 10 10 11 11 11 11 11 12 12 12 12 12 12 12 12 12 12 12 11 11 11 10 10
9 9 10 10 11 11 11 11 11 11 11 11 12 11 11 11 11 11 11 10 10 10 10 10 11 11 11 11 11 12 11 12 12 12 12 12 12 12 12 12 11 11 11 11 11
8 9 9 10 10 10 11 11 11 11 11 11 11 11 11 10 10 10 11 10 10 10 10 11 11 11 11 11 11 11 11 12 11 11 12 11 11 11 12 12 11 11 11 11 10
8 9 9 9 10 10 10 11 11 11 11 11 11 11 10 10 10 10 10 9 9 10 10 10 11 11 11 11 11 11 11 11 11 11 11 11 11 11 11 11 11 11 11 11 10
8 8 9 9 10 10 10 10 10 11 11 11 11 11 10 10 10 10 10 10 10 10 10 10 11 11 11 11 11 11 12 12 12 11 11 11 11 11 11 11 11 11 11 10 10
8 8 9 9 9 10 10 10 10 11 11 11 11 10 9 9 10 10 10 10 9 10 9 10 10 10 11 11 11 11 11 12 12 11 11 11 11 11 11 11 10 10 10 10 10
8 8 8 9 9 9 10 10 10 10 10 10 10 10 9 9 9 9 9 10 9 9 9 10 10 10 10 10 11 11 11 11 12 12 11 11 11 11 11 10 10 10 10 10 9
8 9 8 8 8 9 9 9 9 9 10 10 11 10 9 9 9 9 9 9 9 9 9 9 10 10 10 11 11 11 11 11 12 12 12 11 11 11 11 10 10 10 9 9 8
8 8 9 8 8 8 8 9 9 9 11 10 10 10 10 9 9 9 9 9 9 10 9 10 11 10 10 10 11 11 11 11 11 11 11 11 11 11 10 10 10 10 9 9 8
8 8 9 8 8 8 8 8 8 9 9 12 11 11 9 9 9 9 9 9 10 10 9 10 10 11 10 10 10 10 10 10 10 10 11 11 11 10 10 10 10 9 8 8 7
8 8 8 8 8 7 7 8 8 8 8 11 11 11 10 9 9 9 9 9 9 9 9 10 10 10 10 10 10 10 10 10 10 10 10 10 9 10 11 11 10 9 8 8 7
7 7 8 8 8 7 7 7 8 8 6 11 10 10 10 10 9 9 9 9 9 9 9 9 10 10 10 10 10 10 10 10 10 10 10 10 9 10 10 10 9 9 8 7 7
7 7 8 8 8 7 7 7 7 7 7 10 10 10 10 9 9 9 9 9 9 9 9 9 9 9 9 9 9 9 9 9 10 9 7 9 8 9 9 9 8 8 7 7 7
6 7 8 8 8 7 7 6 6 6 10 10 10 10 11 10 9 9 9 9 9 9 9 9 9 9 10 9 9 9 9 8 7 5 4 8 8 8 8 8 8 7 8 8 7
6 7 7 8 7 7 6 5 6 8 9 9 9 10 10 10 9 9 9 9 9 9 9 9 9 10 10 10 10 9 9 8 3 1 5 8 8 8 7 8 8 8 7 7 7
5 5 7 7 7 7 7 5 6 8 8 9 9 10 10 10 10 9 9 10 10 10 9 9 9 10 9 9 9 9 9 9 8 6 5 7 7 7 7 7 7 7 7 6 6
5 5 6 6 6 6 6 5 6 7 7 7 7 8 8 9 9 10 9 10 10 10 10 9 9 9 9 9 9 9 9 8 8 3 4 5 6 8 7 7 7 7 7 6 6
4 4 4 5 5 5 5 5 6 6 6 6 6 6 8 8 8 9 9 10 10 10 10 9 10 9 9 9 9 8 8 8 8 7 1 -1 6 8 8 7 7 7 6 6 6
4 3 3 4 4 4 4 4 4 5 5 5 6 6 7 8 8 8 9 9 10 10 10 9 9 9 9 9 8 8 8 8 8 6 7 6 7 8 8 7 7 6 6 6 5
3 3 3 3 3 3 3 3 4 4 4 4 4 6 7 7 7 8 9 9 9 10 9 9 9 8 8 8 8 8 8 7 7 8 7 3 7 8 8 7 7 6 5 5 5
2 3 2 2 2 2 2 3 3 3 3 3 4 5 6 7 7 8 8 8 8 9 9 9 9 9 8 8 8 8 8 7 7 6 7 7 7 7 7 7 6 5 5 4 4
1 1 2 2 2 2 2 2 2 3 3 3 4 4 6 6 7 8 8 8 8 8 8 9 8 8 7 7 7 7 7 7 7 6 6 7 7 7 7 6 5 4 4 4 3
-0 0 1 1 1 1 1 1 1 2 2 3 3 4 4 5 6 7 7 7 7 7 7 8 7 7 6 6 5 5 6 6 7 6 6 6 7 6 5 4 4 4 3 3 3
-1 -1 -0 0 0 -0 1 1 1 1 2 2 2 2 3 3 4 5 6 7 7 7 7 7 7 6 6 5 5 5 6 6 5 5 5 6 6 5 4 4 3 3 3 3 3
Height
3164 3162 3161 3159 3158 3158 3157 3156 3154 3154 3153 3152 3152 3152 3152 3151 3151 3151 3150 3151 3151 3150 3150 3151 3153 3154 3157 3158 3160 3163 3165 3165 3166 3168 3169 3170 3168 3169 3168 3166 3168 3169 3171 3171 3171
3164 3162 3161 3159 3158 3157 3156 3155 3154 3153 3153 3152 3152 3152 3152 3152 3151 3151 3152 3151 3151 3150 3151 3152 3153 3155 3156 3159 3161 3163 3165 3166 3168 3169 3169 3169 3169 3169 3170 3169 3169 3169 3171 3173 3173
3165 3163 3161 3159 3157 3156 3155 3154 3154 3153 3153 3152 3152 3152 3152 3152 3153 3151 3151 3151 3151 3151 3152 3153 3154 3156 3158 3160 3162 3163 3165 3167 3168 3169 3170 3170 3170 3170 3170 3170 3171 3170 3170 3173 3176
3164 3162 3160 3158 3156 3155 3154 3153 3153 3152 3151 3151 3151 3151 3152 3152 3155 3152 3151 3151 3151 3151 3151 3152 3155 3156 3158 3160 3161 3163 3164 3165 3168 3170 3171 3171 3170 3171 3172 3172 3173 3175 3177 3178 3180
3164 3162 3160 3158 3156 3154 3153 3152 3151 3151 3150 3150 3150 3151 3151 3152 3152 3152 3152 3151 3152 3152 3152 3153 3155 3156 3158 3159 3160 3161 3163 3164 3166 3168 3169 3169 3168 3169 3172 3174 3173 3175 3176 3178 3179
3164 3162 3159 3157 3155 3153 3152 3151 3150 3149 3149 3149 3149 3149 3151 3152 3151 3151 3150 3151 3152 3153 3154 3155 3156 3156 3158 3159 3160 3161 3163 3164 3165 3166 3167 3166 3166 3168 3170 3171 3174 3175 3175 3176 3176
3162 3161 3159 3157 3155 3153 3151 3150 3149 3148 3148 3148 3148 3148 3149 3151 3150 3150 3149 3150 3151 3151 3152 3154 3156 3158 3157 3159 3159 3160 3162 3163 3164 3165 3165 3166 3165 3165 3165 3167 3169 3172 3174 3174 3173
3160 3158 3157 3156 3154 3152 3150 3149 3148 3147 3146 3146 3147 3147 3148 3149 3149 3149 3149 3150 3151 3151 3151 3153 3153 3154 3156 3157 3158 3159 3160 3160 3162 3163 3164 3165 3165 3165 3164 3165 3166 3168 3170 3170 3170
3157 3156 3155 3153 3152 3151 3149 3147 3147 3147 3146 3145 3146 3146 3147 3147 3148 3148 3149 3149 3150 3150 3150 3152 3152 3153 3155 3156 3158 3157 3158 3158 3159 3160 3162 3163 3163 3164 3162 3162 3163 3165 3165 3166 3165
3155 3154 3152 3151 3150 3148 3147 3146 3145 3145 3144 3144 3144 3147 3147 3147 3147 3147 3147 3148 3150 3150 3152 3153 3153 3154 3154 3155 3156 3157 3157 3157 3155 3157 3158 3160 3161 3162 3161 3160 3161 3162 3162 3162 3161
3152 3151 3150 3148 3148 3146 3145 3144 3145 3143 3141 3142 3142 3142 3142 3145 3145 3146 3148 3148 3149 3150 3151 3151 3151 3152 3154 3154 3155 3156 3156 3156 3155 3154 3156 3157 3159 3160 3160 3159 3158 3158 3159 3159 3157
3148 3148 3148 3146 3145 3145 3143 3141 3139 3140 3138 3137 3138 3140 3140 3140 3142 3144 3147 3149 3148 3149 3149 3151 3150 3151 3152 3154 3155 3154 3155 3155 3154 3154 3156 3156 3158 3157 3157 3157 3156 3155 3155 3155 3154
3144 3144 3144 3143 3142 3143 3141 3140 3138 3137 3135 3134 3133 3135 3138 3140 3141 3142 3145 3146 3147 3148 3148 3149 3151 3150 3151 3153 3154 3154 3154 3154 3154 3154 3154 3154 3155 3155 3155 3154 3153 3153 3154 3153 3152
3140 3139 3139 3140 3141 3139 3138 3138 3138 3138 3134 3132 3130 3131 3134 3137 3139 3140 3143 3146 3145 3146 3147 3148 3149 3150 3151 3152 3153 3153 3154 3154 3154 3154 3154 3154 3151 3150 3149 3148 3149 3149 3150 3151 3150
3136 3133 3134 3134 3136 3136 3137 3137 3137 3137 3136 3130 3129 3129 3131 3135 3137 3138 3141 3142 3143 3144 3147 3148 3148 3149 3150 3151 3151 3152 3152 3152 3151 3151 3151 3150 3149 3144 3144 3145 3146 3147 3148 3149 3149
3128 3128 3129 3130 3131 3131 3132 3134 3137 3139 3132 3128 3127 3128 3130 3132 3134 3136 3138 3140 3141 3140 3143 3145 3146 3147 3148 3149 3149 3150 3150 3150 3149 3149 3148 3147 3147 3144 3143 3144 3144 3146 3147 3147 3147
3124 3122 3121 3124 3126 3125 3128 3131 3136 3132 3128 3128 3127 3127 3128 3129 3131 3133 3136 3137 3139 3139 3140 3143 3143 3144 3145 3146 3147 3147 3149 3149 3149 3150 3148 3145 3144 3141 3141 3142 3145 3146 3147 3146 3144
3119 3116 3114 3114 3117 3121 3125 3128 3127 3125 3125 3124 3124 3125 3125 3127 3129 3130 3133 3134 3136 3137 3138 3139 3141 3140 3141 3143 3144 3144 3146 3147 3154 3153 3146 3143 3140 3140 3141 3142 3144 3145 3145 3144 3141
3114 3110 3109 3108 3111 3115 3119 3120 3119 3123 3124 3122 3122 3122 3124 3125 3127 3127 3128 3129 3131 3134 3137 3136 3137 3137 3138 3140 3142 3142 3143 3144 3144 3145 3145 3141 3140 3139 3139 3141 3142 3142 3141 3140 3138
3111 3107 3104 3105 3107 3110 3113 3111 3117 3120 3120 3120 3120 3120 3119 3122 3124 3124 3124 3124 3126 3129 3131 3133 3135 3135 3137 3139 3139 3139 3141 3142 3141 3145 3145 3138 3137 3135 3136 3137 3138 3138 3137 3136 3135
3109 3104 3102 3102 3104 3107 3106 3110 3112 3117 3117 3116 3116 3116 3117 3119 3119 3119 3119 3119 3120 3123 3127 3129 3131 3134 3135 3135 3135 3136 3136 3138 3138 3138 3138 3142 3133 3132 3134 3135 3135 3135 3135 3133 3131
3105 3104 3102 3102 3104 3103 3104 3107 3109 3109 3112 3111 3113 3114 3114 3114 3112 3114 3114 3115 3117 3119 3121 3125 3126 3127 3130 3131 3132 3132 3133 3133 3133 3134 3132 3130 3128 3130 3131 3132 3132 3131 3129 3128 3127
3101 3101 3101 3101 3100 3100 3101 3104 3105 3106 3107 3107 3107 3109 3110 3110 3111 3109 3109 3111 3113 3114 3116 3120 3121 3123 3127 3130 3129 3129 3129 3129 3129 3129 3126 3128 3127 3127 3128 3127 3127 3125 3124 3124 3123
3098 3098 3098 3099 3098 3097 3099 3101 3102 3103 3103 3102 3103 3103 3103 3105 3105 3105 3106 3107 3109 3111 3114 3116 3116 3118 3121 3122 3123 3124 3125 3125 3125 3125 3124 3123 3123 3124 3124 3123 3121 3121 3121 3121 3120
3093 3093 3093 3095 3096 3096 3097 3098 3098 3098 3099 3097 3099 3099 3099 3100 3100 3100 3102 3103 3105 3107 3109 3112 3113 3115 3117 3118 3119 3120 3121 3121 3120 3121 3120 3120 3118 3119 3119 3118 3118 3119 3119 3117 3115
3087 3088 3089 3090 3090 3092 3092 3093 3094 3095 3095 3095 3096 3096 3096 3095 3095 3096 3097 3099 3101 3104 3105 3107 3108 3111 3113 3114 3114 3115 3116 3116 3116 3115 3114 3114 3114 3114 3114 3115 3115 3116 3116 3114 3111
3081 3081 3082 3084 3085 3088 3088 3088 3090 3089 3093 3090 3090 3091 3093 3094 3092 3092 3092 3094 3096 3098 3100 3103 3104 3106 3109 3110 3111 3113 3110 3110 3110 3109 3110 3110 3112 3112 3112 3112 3113 3113 3112 3109 3105
Wind_Speed
13 11 9 8 6 6 5 4 3 2 1 2 1 0 1 2 4 3 2 1 2 5 7 7 8 9 10 9 10 9 15 15 18 17 17 11 14 23 13 8 14 8 12 10 8
14 13 11 8 6 6 5 4 3 3 2 3 2 1 1 3 4 2 2 3 5 8 8 6 6 8 12 12 8 10 13 11 10 12 11 8 1 5 13 8 7 11 10 8 5
13 13 13 10 7 6 5 5 4 3 3 3 2 1 2 3 5 2 2 5 7 9 9 10 14 14 14 10 5 6 10 4 5 5 6 4 3 2 5 6 7 4 6 11 11
11 12 13 13 10 7 6 5 5 5 5 4 3 2 3 5 4 1 4 5 7 11 13 15 18 17 13 7 2 7 5 2 1 7 5 7 5 7 4 4 6 5 5 4 5
12 12 12 12 11 9 7 5 5 5 5 4 4 3 4 4 4 2 2 4 4 9 13 15 18 15 9 4 1 6 4 4 5 6 9 11 14 14 10 7 4 1 5 6 5
11 11 11 11 10 8 8 6 4 5 6 5 4 4 5 3 1 5 3 5 5 7 9 11 15 16 9 3 6 5 3 4 6 5 8 8 12 12 10 10 6 6 8 8 10
11 9 10 11 10 8 7 6 5 4 4 5 5 5 4 2 3 3 4 5 4 6 9 11 12 14 12 4 7 8 8 9 10 8 6 5 7 7 12 12 11 11 12 13 15
12 11 9 9 10 9 7 6 5 5 4 3 4 4 4 4 2 4 3 2 6 6 6 8 8 12 14 12 7 12 12 16 16 14 10 10 8 11 10 9 14 16 16 15 19
12 11 10 8 8 9 8 7 7 7 6 4 3 4 2 3 3 2 3 3 6 8 6 5 7 10 10 11 5 3 2 4 10 12 15 15 13 10 9 12 13 15 17 20 21
16 12 11 9 7 7 8 9 9 9 9 5 7 7 3 5 5 6 6 1 9 9 7 5 6 7 4 4 3 3 4 6 10 18 20 19 15 8 11 16 16 17 20 21 20
17 15 12 12 8 6 6 7 10 11 12 11 10 13 9 6 4 3 8 8 11 10 3 3 2 3 3 2 2 6 8 10 8 8 17 20 15 9 10 12 19 21 22 20 21
18 16 13 13 10 8 7 9 11 14 11 12 15 14 14 14 12 5 4 12 11 8 1 3 6 1 3 2 7 11 10 6 4 10 15 15 13 11 10 14 19 22 23 22 20
20 18 14 12 12 10 10 10 12 15 18 8 15 16 16 15 6 2 6 10 8 8 3 1 4 3 4 5 5 5 6 1 5 7 8 11 15 17 16 16 15 26 23 22 19
20 20 17 12 13 13 13 10 10 11 13 7 7 10 19 17 13 3 12 7 3 9 3 3 6 6 6 7 10 10 6 4 5 7 8 12 8 14 18 14 14 19 26 23 19
26 23 19 17 13 15 17 13 11 9 4 3 6 7 14 15 4 12 11 5 6 11 8 5 6 6 10 9 8 9 9 10 11 9 10 11 6 5 6 9 10 19 24 19 18
21 25 22 21 15 18 18 15 11 5 7 6 11 10 14 12 12 7 9 11 9 10 14 11 7 8 7 6 8 9 9 9 11 10 5 3 4 7 7 10 14 20 21 21 22
19 20 22 21 16 18 18 15 8 8 4 6 13 13 8 10 17 17 13 14 7 5 14 6 6 13 13 12 10 12 7 2 2 1 6 5 7 6 8 9 14 17 19 20 20
17 19 18 22 22 19 19 17 11 8 20 2 9 19 17 15 21 20 18 19 16 9 6 5 4 6 9 14 10 9 10 4 5 2 5 9 4 3 7 8 12 12 13 18 22
15 16 15 19 25 21 23 24 16 18 4 8 5 16 24 22 19 26 26 22 17 16 11 8 6 5 9 9 7 7 12 10 6 2 2 4 6 8 11 10 11 12 17 20 24
14 13 12 14 18 22 26 33 24 27 11 11 12 3 6 13 24 26 26 20 30 22 19 15 7 7 8 8 9 10 8 6 6 3 4 4 6 11 11 11 12 15 17 22 24
15 12 12 10 13 21 27 30 27 28 24 20 17 19 18 17 13 16 9 13 19 27 28 20 15 11 15 15 16 11 15 10 9 7 7 2 6 6 9 11 14 17 19 24 26
15 10 9 11 10 19 23 23 21 26 21 20 24 24 23 14 19 19 15 14 9 20 30 26 18 15 18 15 16 12 11 21 16 8 11 9 18 22 19 13 16 17 23 26 27
14 10 11 12 13 15 17 19 22 23 19 17 15 21 24 21 18 21 24 18 15 13 27 28 15 10 3 11 19 15 11 11 15 17 19 9 14 17 17 16 19 22 23 25 23
13 7 12 19 19 18 18 17 19 14 13 17 16 18 22 24 20 23 20 16 15 14 21 20 19 16 14 8 9 20 20 13 9 8 14 20 22 21 22 23 22 19 19 19 22
14 12 11 12 20 21 20 12 12 16 15 15 10 10 10 18 21 21 19 14 18 22 22 21 18 17 13 12 15 17 19 16 14 14 15 16 17 19 19 17 15 15 16 19 22
18 16 16 18 20 20 19 16 11 14 16 16 16 16 6 9 17 20 19 20 22 24 23 22 17 15 12 14 15 17 22 23 23 23 20 16 18 11 9 13 13 14 15 19 23
20 21 20 18 18 17 20 21 21 23 11 8 4 11 20 8 7 7 13 21 21 26 28 25 24 17 10 9 6 8 10 15 18 17 19 16 14 11 11 12 13 14 17 22 32
Wind_Direction
22 13 4 358 356 3 14 17 357 337 340 289 282 144 111 120 132 101 122 134 159 149 137 151 170 180 173 164 183 131 102 96 84 92 119 136 133 149 142 149 170 172 145 148 123
23 18 10 360 347 336 330 335 345 344 333 306 310 277 125 137 150 118 132 159 158 131 115 117 130 152 156 168 181 162 117 89 84 113 106 112 331 140 157 177 183 173 161 148 116
12 13 12 5 355 336 321 303 302 305 303 307 312 285 151 147 141 98 155 161 154 148 145 143 143 146 149 146 137 154 129 75 110 115 134 175 206 146 183 162 154 218 120 83 56
351 357 1 2 356 350 325 304 293 287 285 292 290 270 173 141 161 116 167 144 156 145 152 159 162 156 154 139 210 208 142 285 321 174 219 246 223 199 210 272 169 158 127 58 19
334 340 346 352 351 349 344 319 294 286 280 280 274 246 206 176 200 234 169 131 130 163 175 173 173 167 163 141 164 215 243 265 228 248 290 280 255 264 247 264 244 259 294 328 333
324 329 337 340 342 339 341 341 315 284 275 273 264 236 210 193 277 258 166 134 157 195 214 205 188 182 175 170 169 146 134 233 201 258 291 238 251 252 267 278 252 265 320 314 317
322 317 326 336 335 331 324 329 323 310 287 270 256 239 225 204 224 190 155 163 161 226 227 236 223 215 194 190 216 210 206 204 233 235 266 228 228 258 294 289 270 277 291 299 311
326 317 312 326 331 327 308 301 307 303 292 275 263 238 187 201 155 175 199 217 157 142 167 203 223 213 212 213 241 233 250 242 242 233 236 236 250 277 294 302 282 276 284 294 307
317 315 306 310 327 324 306 286 289 292 292 269 242 183 184 227 281 170 152 90 137 121 111 138 176 177 195 224 224 169 291 319 267 231 231 231 250 265 266 259 264 281 291 298 303
306 308 302 290 304 315 308 301 289 282 281 269 197 182 206 198 109 67 24 7 149 128 122 109 134 154 178 215 187 209 310 314 305 211 222 238 243 263 261 257 264 279 286 290 292
302 301 300 291 285 299 294 283 275 270 270 260 238 207 182 165 163 21 9 166 164 156 132 301 232 157 102 95 231 296 293 295 305 251 227 227 236 272 283 256 260 275 275 278 279
297 296 293 287 275 281 270 265 275 283 283 264 248 225 218 201 199 188 301 196 180 178 222 222 184 243 183 276 294 278 269 265 245 206 208 222 229 258 257 256 269 274 266 267 270
296 292 286 276 269 263 262 257 270 288 300 273 251 241 219 222 219 133 231 201 213 203 261 246 269 257 192 241 217 225 248 155 205 198 218 244 252 256 260 279 275 246 253 256 260
295 290 284 269 263 249 249 257 279 303 300 271 258 233 210 214 220 196 219 190 301 216 239 234 195 195 198 211 224 241 244 279 291 275 281 248 276 260 278 284 279 241 238 245 259
292 289 282 271 252 238 247 257 277 303 316 200 167 178 203 211 179 199 211 202 282 253 216 187 175 199 220 241 240 249 257 261 290 296 293 271 275 281 297 292 256 229 224 229 253
296 283 277 273 258 237 238 245 257 246 256 193 175 187 189 210 204 220 211 222 274 229 219 216 207 217 242 265 246 245 281 269 275 283 292 253 268 266 261 285 246 216 218 245 270
306 295 276 262 257 237 230 226 224 218 221 216 202 215 204 195 205 214 216 219 248 212 213 240 244 245 259 265 260 246 227 300 335 358 223 285 302 264 231 231 231 231 246 268 275
316 302 282 244 241 238 224 211 212 230 234 257 240 226 218 220 218 221 228 238 238 240 218 247 264 233 245 247 260 218 225 200 196 211 275 313 256 245 225 224 234 262 279 289 284
334 311 289 250 236 231 223 214 212 223 262 244 251 226 224 228 229 229 236 242 244 242 218 206 226 273 208 238 201 200 220 228 214 210 296 263 259 258 226 237 260 278 281 280 271
337 322 294 255 238 224 220 225 226 229 236 260 296 264 181 226 240 246 244 249 243 242 239 230 208 183 186 210 239 257 242 181 185 150 242 261 256 241 237 261 259 277 293 273 280
320 324 296 273 234 219 221 227 236 241 249 264 264 273 269 284 272 235 248 250 245 239 234 229 220 211 211 227 240 213 206 214 216 208 173 210 247 281 270 281 284 297 272 271 280
300 312 270 267 225 222 223 228 238 243 241 258 263 266 267 271 278 259 264 264 260 235 227 219 221 214 232 254 222 236 269 233 223 222 224 244 263 279 280 277 284 275 256 267 272
290 283 243 232 234 231 236 237 247 256 261 263 256 254 250 254 271 266 262 273 261 243 228 219 209 204 219 239 242 245 236 230 239 252 242 222 250 290 292 276 281 267 253 261 284
290 274 242 228 239 240 240 246 255 262 269 271 273 265 250 243 251 261 264 259 241 231 226 229 225 222 226 239 231 210 204 212 234 256 263 260 278 291 291 288 282 251 260 275 281
273 266 237 227 237 247 255 250 252 256 241 249 242 253 249 238 241 241 239 233 220 209 218 226 224 220 229 245 246 233 225 233 254 267 281 293 294 291 292 270 252 252 271 284 296
266 260 252 244 246 253 252 250 247 244 268 265 265 251 226 230 226 232 228 235 218 211 216 224 223 226 221 239 253 261 254 255 265 277 277 290 298 274 232 228 243 262 280 289 302
258 258 256 250 250 257 260 263 252 250 242 237 248 275 243 222 200 224 233 229 236 227 221 217 218 208 202 220 231 274 253 252 257 269 272 279 278 237 221 240 257 272 287 309 316